ASTRA 2E                
1 39285U 13056A   19260.84560166  .00000146  00000-0  00000+0 0  9996
2 39285   0.0576   8.3091 0002402 168.0314 153.0478  1.00274036 21878
BREEZE-M R/B            
1 39286U 13056B   19260.59231463 -.00000058  00000-0  00000-0 0  9998
2 39286  23.1198 285.4653 6063285  12.6550 357.6531  2.18175712 47540
BREEZE-M DEB [TANK]     
1 39287U 13056C   19261.82138162  .00000056  00000-0  40450-4 0  9992
2 39287  49.4981 102.2637 5199466 344.8966   4.1464  5.23320914113718